2018-104Q (43863 NORAD) Tracking and Keplerian Element Data

This shows tracking and keplerian element data for the satellite.

Feedback or suggestion? Click here.




ElementValue
Catalog43863
Name2018-104Q
Epoch Orbit455
Epoch Day14.79837751
Epoch Year2019
RAAN156.9037
Inclination85.0078
Eccentricity0.0130889
Argument of Perigee111.8965
Mean Anonmoly249.617
Mean Motion15.96642683
Decay Rate0.00605808
L11 43863U 18104Q 19014.79837751 .00605808 -14932-5 56955-3 0 9995
L22 43863 85.0078 156.9037 0130889 111.8965 249.6170 15.96642683 4558

Live tracking and technical data element details for 2018-104Q (NORAD 43863). 2018-104Q can be tracked NOW for your location showing map with azimuth and elevation plus other details from your city location.

Track the satellite on the map from your city or location and see movement details for azimuth, elevation, latitude, longitude, range, height, and movement on the map or in text.







IsCatalogInMostPopularTable: catalog: 43863, numindb: 59
Update: records affected: 1



GetName: 43863 2018-104Q

Hit Count: updated at: Thu, 23 May 2019 15:34:03 GMT